Location: Cleveland
(41.4990°N, 81.6960°W)
Time: 22:01:33
(UTC-04:00)

ISS - Pass Details

Date: 01 October 2021
Orbit: 417 x 423 km, 51.6° (Epoch: 24 October)

Event Time Altitude Azimuth Distance (km) Brightness Sun altitude
Rises 20:28:47 0° 309° (NW) 2,364 1.2 -15.9°
Reaches altitude 10° 20:30:59 10° 318° (NW) 1,499 -0.2 -16.3°
Maximum altitude 20:34:07 36° 27° (NNE) 687 -2.9 -16.9°
Enters shadow 20:34:37 34° 48° (NE) 719 -2.9 -17.0°
